Location: Cortada de Papelón
(10.0378°N, 66.9528°W)
Time: 09:18:37
(UTC+00:00)

Cosmos 1151 Rocket - Pass Details

Date: 13 June 2024
Orbit: 588 x 611 km, 82.5° (Epoch: 19 July)

Event Time Altitude Azimuth Distance (km) Brightness Sun altitude
Rises 23:17:24 0° 178° (S) 2,856 6.2 -7.1°
Reaches altitude 10° 23:19:38 10° 176° (S) 1,950 5.3 -7.6°
Maximum altitude 23:23:55 66° 94° (E) 658 3.0 -8.6°
Drops below altitude 10° 23:28:09 10° 11° (NNE) 1,935 5.8 -9.5°
Sets 23:30:21 0° 9° (N) 2,833 6.7 -10.0°
